Orbital Elements at Epoch 2459000.5 (2020-May-31.0) TDB
Reference: JPL 20 (heliocentric ecliptic J2000)
Element | Value | Uncertainty (1-sigma) | Units |
e | .2261098135721766 | 4.9509e-08 | |
a | 2.589113587674364 | 1.6008e-08 | au |
q | 2.003689597048124 | 1.2761e-07 | au |
i | 11.38371466682453 | 7.5342e-06 | deg |
node | 208.6825112750647 | 1.7287e-05 | deg |
peri | 239.9440823555585 | 2.3227e-05 | deg |
M | 102.0459165978957 | 1.3889e-05 | deg |
tp | 2458569.161510735680 (2019-Mar-26.66151074) | 5.7897e-05 | TDB |
period | 1521.686132204894 4.17 | 1.4112e-05 3.864e-08 | d yr |
n | .2365796680281018 | 2.1941e-09 | deg/d |
Q | 3.174537578300604 | 1.9628e-08 | au |
|
| | Orbit Determination Parameters
Additional Information
|